User: anonymous   Login
Location: Unspecified
(0.0000°N, 0.0000°E)
Time: 22:00:19
(UTC+02:00)
Language:

Cosmos 1953 Rocket - Orbit

View from above orbital plane
View from above orbital plane
View from above satellite
View from above satellite

Ground track
Ground track

The orbit data is extracted from the following two-line orbital elements,

1 19211U 88050B   16148.17865426  .00000103  00000-0  97393-5 0  9994
2 19211  82.5271 203.4163 0020674 312.1398  99.9428 14.82898218509585
Epoch (UTC): 27 May 2016 04:17:15
Eccentricity: 0.0020674
inclination: 82.5271°
perigee height: 606 km
apogee height: 634 km
right ascension of ascending node: 203.4163°
argument of perigee: 312.1398°
revolutions per day: 14.82898218
mean anomaly at epoch: 99.9428°
orbit number at epoch: 50958

The dashed part of the orbit path shows where the satellite is in the earth's shadow,  

DLR